カタログに戻る

STARLINK-4433

運用中通信SSO
NORAD 53478·PAYLOAD·🇺🇸 United States

打ち上げ Aug 12, 2022 から Vandenberg Space Force Base

Loading…

次のパス (今後24時間)

TLE

最新Source: CelesTrak SupGP

元期: Sep 15, 2026, 01:46 UTC

1 53478C 22099P   26258.07409722  .00728510  00000+0  43001-1 0  2582
2 53478  97.2854  12.1112 0001776  90.4033  40.4960 15.11252145    13

AllMySatでSTARLINK-4433をリアルタイム追跡

Download on the App Store